Weather History for KellyUSA Airport, TX

Change the Weather History Date:

Tuesday, August 20, 2013

  Actual Average Record
Temperature  
Mean Temperature 82 °F -  
Max Temperature 96 °F 93 °F 104 °F (1999)
Min Temperature 70 °F 73 °F 68 °F (2008)
Cooling Degree Days 18    
Growing Degree Days 32 (Base 50)    
Moisture  
Dew Point 66 °F    
Average Humidity 58    
Maximum Humidity 100    
Minimum Humidity 30    
Precipitation  
Precipitation 0.00 in - - ()
Sea Level Pressure  
Sea Level Pressure 29.97 in    
Wind  
Wind Speed 7 mph (East)    
Max Wind Speed 17 mph    
Max Gust Speed 24 mph    
Visibility 10 miles    
Events      
Averages and records for this station are not official NWS values.
T = Trace of Precipitation, MM = Missing Value Source: NWS Daily Summary

Daily Weather History Graph

Daily Weather History Graph

Search for Another Location

Airport:

Trip Planner

Search our weather history database for the weather conditions in past years. The results will help you decide how hot, cold, wet, or windy it might be!

Date:

Astronomy

Aug. 20, 2013 Rise Set
Actual Time 7:05 AM CDT 8:09 PM CDT
Civil Twilight 6:40 AM CDT 8:33 PM CDT
Nautical Twilight 6:11 AM CDT 9:03 PM CDT
Astronomical Twilight 5:41 AM CDT 9:33 PM CDT
Moon 7:46 PM CDT (8/20) 6:34 AM CDT (8/20)
Length of Visible Light 13h 53m
Length of Day
13h 03m
Full, 100% of the Moon is Illuminated
Aug 20
Full
Aug 20
Full
Aug 28
Last Quarter
Sep 5
New
Sep 12
First Quarter

Hourly Weather History & Observations

Time (CDT) Temp. Heat Index Dew Point Humidity Pressure Visibility Wind Dir Wind Speed Gust Speed Precip Events Conditions
12:58 AM 79.7 °F - 65.8 °F 62% 29.97 in 10.0 mi SE 8.1 mph - N/A   Clear
1:58 AM 78.6 °F - 66.2 °F 66% 29.97 in 10.0 mi ESE 6.9 mph - N/A   Clear
2:58 AM 76.8 °F - 67.6 °F 73% 29.96 in 10.0 mi East 3.5 mph - N/A   Clear
3:58 AM 73.6 °F - 67.1 °F 80% 29.96 in 10.0 mi North 2.3 mph - N/A   Clear
4:58 AM 70.7 °F - 66.2 °F 86% 29.95 in 10.0 mi Calm Calm - N/A   Clear
5:55 AM 71.2 °F - 66.9 °F 86% 29.95 in 10.0 mi NNW 3.5 mph - N/A   Clear
6:58 AM 70.9 °F - 67.3 °F 88% 29.96 in 10.0 mi NNW 2.3 mph - N/A   Clear
7:58 AM 71.2 °F - 67.6 °F 88% 29.97 in 10.0 mi Calm Calm - N/A   Clear
8:55 AM 71.6 °F - 71.8 °F 100% 29.98 in 10.0 mi ENE 5.8 mph - N/A   Scattered Clouds
9:19 AM 80.6 °F 84.6 °F 71.6 °F 74% 30.01 in 10.0 mi NE 5.8 mph - N/A   Mostly Cloudy
9:46 AM 80.6 °F 83.9 °F 69.8 °F 70% 29.99 in 10.0 mi Variable 3.5 mph - N/A   Scattered Clouds
9:55 AM 82.4 °F 86.3 °F 69.8 °F 66% 30.01 in 10.0 mi North 5.8 mph - N/A   Partly Cloudy
10:58 AM 86.0 °F 89.4 °F 68.0 °F 55% 30.00 in 10.0 mi ENE 8.1 mph - N/A   Clear
11:58 AM 89.4 °F 91.9 °F 66.0 °F 46% 29.99 in 10.0 mi East 8.1 mph 17.3 mph N/A   Clear
12:58 PM 91.8 °F 92.6 °F 62.8 °F 38% 29.98 in 10.0 mi East 15.0 mph 20.7 mph N/A   Clear
1:38 PM 93.2 °F 92.6 °F 59.0 °F 32% 30.00 in 10.0 mi ENE 16.1 mph 17.3 mph N/A   Mostly Cloudy
1:58 PM 95.0 °F 95.2 °F 60.8 °F 32% 29.97 in 10.0 mi ESE 8.1 mph 17.3 mph N/A   Mostly Cloudy
2:03 PM 93.2 °F 93.3 °F 60.8 °F 34% 29.99 in 10.0 mi East 15.0 mph 17.3 mph N/A   Scattered Clouds
2:18 PM 91.4 °F 90.7 °F 59.0 °F 34% 29.99 in 10.0 mi East 9.2 mph - N/A   Mostly Cloudy
2:23 PM 93.2 °F 92.6 °F 59.0 °F 32% 29.98 in 10.0 mi East 9.2 mph - N/A   Mostly Cloudy
2:38 PM 95.0 °F 94.4 °F 59.0 °F 30% 29.97 in 10.0 mi Variable 6.9 mph - N/A   Scattered Clouds
2:42 PM 95.0 °F 94.4 °F 59.0 °F 30% 29.97 in 10.0 mi East 12.7 mph 18.4 mph N/A   Scattered Clouds
2:58 PM 93.9 °F 92.9 °F 57.7 °F 30% 29.95 in 10.0 mi ENE 5.8 mph 17.3 mph N/A   Partly Cloudy
3:58 PM 93.7 °F 95.8 °F 64.8 °F 38% 29.92 in 10.0 mi ESE 17.3 mph 24.2 mph N/A   Partly Cloudy
4:58 PM 88.3 °F 92.0 °F 68.4 °F 51% 29.94 in 10.0 mi SE 15.0 mph - N/A   Clear
5:58 PM 88.9 °F 91.8 °F 67.1 °F 48% 29.95 in 10.0 mi ESE 10.4 mph 18.4 mph N/A   Clear
6:58 PM 85.1 °F 88.2 °F 67.6 °F 56% 29.92 in 10.0 mi SE 13.8 mph - N/A   Clear
7:58 PM 83.8 °F 86.5 °F 67.3 °F 57% 29.93 in 10.0 mi SE 12.7 mph - N/A   Clear
8:58 PM 81.7 °F 85.2 °F 69.6 °F 67% 29.96 in 10.0 mi SE 13.8 mph - N/A   Clear
9:58 PM 79.7 °F - 68.5 °F 69% 29.99 in 10.0 mi SE 13.8 mph - N/A   Clear
10:58 PM 78.4 °F - 68.9 °F 72% 29.99 in 10.0 mi ESE 10.4 mph - N/A   Clear
11:58 PM 76.8 °F - 68.2 °F 75% 30.00 in 10.0 mi SE 10.4 mph - N/A   Clear